Location: Lussas
(44.6119°N, 4.4726°E)
Time: 19:11:43
(UTC+00:00)

CZ-2C R/B - Pass Details

Date: 26 November 2020
Orbit: 785 x 870 km, 98.2° (Epoch: 27 January)

Event Time Altitude Azimuth Distance (km) Brightness Sun altitude
Rises 05:42:44 0° 150° (SSE) 3,421 6.7 -12.3°
Reaches altitude 10° 05:45:10 10° 145° (SE) 2,479 6.0 -11.9°
Maximum altitude 05:50:30 52° 71° (ENE) 1,036 3.5 -11.0°
Drops below altitude 10° 05:55:45 10° 356° (N) 2,443 4.9 -10.1°
Sets 05:58:08 0° 352° (N) 3,367 5.5 -9.7°
